This demonstration page uses our WeatherBlox Daily Observations layout. Learn more.

39.92423, -83.80882

Hourly Observations for September 6, 2019

Temp ( °F °C ) Dew Point ( °F °C ) Humidity (%) Winds ( mph kmh ) Pressure ( in mb ) Visibility ( mi km ) Precip ( " mm )
12:56 am 00:56 Clear 55 12.8 52 11.1 90 90 E 5 7 30 1016 10 16.09344 0 0
1:56 am 01:56 Clear 55 12.8 53 11.7 93 93 NNE 5 7 30.03 1017 10 16.09344 0 0
2:56 am 02:56 Clear 54 12.2 52 11.1 93 93 ESE 3 6 30 1016 10 16.09344 0 0
3:56 am 03:56 Clear 54 12.2 53 11.7 97 97 SSE 5 7 29.97 1015 10 16.09344 0 0
4:56 am 04:56 Clear 51 10.6 51 10.6 100 100 WNW 3 6 29.97 1015 10 16.09344 0 0
5:56 am 05:56 Clear 50 10 50 10 100 100 Calm 29.97 1015 10 16.09344 0 0
6:56 am 06:56 Clear 50 10 50 10 100 100 Calm 29.97 1015 10 16.09344 0 0
7:56 am 07:56 Sunny 53 11.7 52 11.1 96 96 Calm 30 1016 10 16.09344 0 0
8:56 am 08:56 Sunny 58 14.4 56 13.3 93 93 Calm 29.97 1015 10 16.09344 0 0
9:56 am 09:56 Sunny 65 18.3 56 13.3 73 73 SSW 5 7 29.97 1015 10 16.09344 0 0
10:56 am 10:56 Sunny 69 20.6 56 13.3 63 63 SW 7 11 29.94 1014 10 16.09344 0 0
11:56 am 11:56 Sunny 73 22.8 59 15 62 62 SSW 8 13 29.91 1013 10 16.09344 0 0
12:56 pm 12:56 Cloudy 73 22.8 59 15 62 62 SSW 6 9 29.91 1013 10 16.09344 0 0
1:56 pm 13:56 Cloudy 75 23.9 59 15 58 58 WSW 9 15 29.88 1012 10 16.09344 0 0
2:56 pm 14:56 Cloudy 75 23.9 60 15.6 60 60 SW 10 17 29.85 1011 10 16.09344 0 0
3:56 pm 15:56 Cloudy with Light Rain 74 23.3 61 16.1 64 64 SW 7 11 29.85 1011 10 16.09344 0.001 0.001
4:56 pm 16:56 Cloudy 74 23.3 62 16.7 67 67 W 6 9 29.85 1011 10 16.09344 0 0
5:46 pm 17:46 Cloudy 73 23 64 18 74 74 W 10 17 29.85 1011 10 16.09344 0 0
5:56 pm 17:56 Cloudy 73 22.8 64 17.8 74 74 W 10 17 29.85 1011 10 16.09344 0 0
6:56 pm 18:56 Cloudy 73 22.8 64 17.8 74 74 NW 6 9 29.88 1012 10 16.09344 0 0
7:56 pm 19:56 Cloudy 71 21.7 65 18.3 81 81 NW 9 15 29.88 1012 10 16.09344 0 0
8:31 pm 20:31 Cloudy with Light Rain 68 20 66 19 94 94 NW 8 13 29.88 1012 10 16.09344 0.001 0.001
8:56 pm 20:56 Cloudy with Light Rain 68 20 67 19.4 96 96 NNW 6 9 29.91 1013 10 16.09344 0.001 0.001
9:09 pm 21:09 Cloudy 68 20 66 19 94 94 NNW 6 9 29.91 1013 9 14.484096 0 0
9:56 pm 21:56 Cloudy 67 19.4 66 18.9 97 97 NNW 6 9 29.91 1013 10 16.09344 0 0
10:03 pm 22:03 Mostly Cloudy 66 19 64 18 94 94 NNW 6 9 29.91 1013 10 16.09344 0 0
10:56 pm 22:56 Cloudy 67 19.4 66 18.9 97 97 NW 8 13 29.91 1013 10 16.09344 0 0
11:48 pm 23:48 Mostly Cloudy 66 19 66 19 100 100 WNW 8 13 29.91 1013 10 16.09344 0 0
11:56 pm 23:56 Mostly Cloudy 67 19.4 66 18.9 97 97 NW 10 17 29.91 1013 10 16.09344 0 0

Powered by AerisWeather